Regional Weather Roundup
Issued by NWS

Home | Current Version | Previous Version | Graphics & Text | Print | Product List | Glossary On
Versions: 1 2 3 4 5 6 7 8 9 10 11 12 13 14 15 16 17 18 19 20 21 22 23 24 25 26 27 28 29 30 31 32 33 34 35 36 37 38 39 40 41 42 43 44 45 46 47 48 49 50
000
ASUS43 KLOT 242308
RWRIL

ILLINOIS REGIONAL WEATHER ROUNDUP
NATIONAL WEATHER SERVICE CHICAGO/ROMEOVILLE IL
600 PM CDT SAT SEP 24 2016

NOTE: "FAIR" INDICATES FEW OR NO CLOUDS BELOW 12,000 FEET WITH NO
SIGNIFICANT WEATHER AND/OR OBSTRUCTIONS TO VISIBILITY.

* THESE STATIONS ARE NOT UNDER NWS QUALITY CONTROL. THEY ALSO MAY NOT
  REPORT WEATHER SUCH AS PRECIPITATION OR FOG.

ILZ001-002-007-009-015-016-024-250000-
NORTHWEST ILLINOIS

CITY           SKY/WX    TMP DP  RH WIND       PRES   REMARKS
MOLINE         CLEAR     79  68  69 E14       30.03S HX  81
STERLING*      CLEAR     79  68  69 E12       30.07F HX  81
SAVANNA*       CLEAR     77  67  71 E8        30.06F
$$

ILZ003-004-008-010-011-017-018-250000-
NORTH CENTRAL ILLINOIS

CITY           SKY/WX    TMP DP  RH WIND       PRES   REMARKS
ROCKFORD       PTCLDY    73  64  73 E9        30.11F
FREEPORT*      CLEAR     72  64  77 E12       30.11S
ROCHELLE*      CLEAR     75  65  71 E9        30.10S
DE KALB*       CLEAR     73  65  77 E9        30.12S
$$

ILZ005-006-012>014-019>023-250000-
NORTHEAST ILLINOIS

CITY           SKY/WX    TMP DP  RH WIND       PRES   REMARKS
CHICAGO-OHARE  PTCLDY    71  62  73 E9        30.13S
CHICAGO-MIDWAY PTCLDY    73  62  68 E10       30.12F
AURORA         CLEAR     76  64  66 NE10      30.11F
LANSING*       CLOUDY    72  66  81 NE6       30.12F
JOLIET*        CLEAR     76  67  74 NE10      30.11S
WAUKEGAN       CLEAR     67  62  84 E7        30.13F
DUPAGE AIRPORT CLOUDY    72  62  71 E7        30.12S
KANKAKEE*      CLEAR     79  66  63 E8        30.10S HX  81
WHEELING       PTCLDY    68  62  81 E9        30.14F
MORRIS*        CLEAR     78  66  66 E7        30.07F HX  80
ROMEOVILLE*    CLOUDY    73  67  81 E10       30.11F
NORTHERLY ISL    N/A     69  63  81 NE8         N/A
$$

LMZ740>746-250000-
SOUTHERN LAKE MICHIGAN

STATION/POSITION SKY/WX   TEMP    WIND        PRES    VSBY  WAVE
                          AIR SEA DIR/SP/G                  HT/PER
                          (F)     (DEG/KT/KT) (MB)    (MI)  (FT/S)
SOUTHERN BUOY              69 72   80/ 12/ 14 1020.5F         2/ 3
WILMETTE HARBOR            67 66  100/  6/ 10   N/A           2/ 5
HARRISON CRIB              70      60/ 11/ 12   N/A
BURNHAM HARBOR             69      60/  7/  9   N/A
CALUMET HARBOR             70      30/  6/  8 1020.0F
BURNS HARBOR               70      70/ 10     1020.7S
MICHIGAN CITY              68      20/  8/  9   N/A
MICHIGAN CITY 6N           71 71   50/ 10/ 14   N/A           2/ 3
ST. JOSEPH                 73 71   80/  8/ 10 1020.3F         1
$$

ILZ025>027-034>036-040-047-049-050-058-095>099-250000-
WEST-CENTRAL ILLINOIS

CITY           SKY/WX    TMP DP  RH WIND       PRES   REMARKS
QUINCY         SUNNY     86  64  47 S9        30.01S HX  87
GALESBURG*     CLEAR     83  64  52 SE3       30.03S HX  85
MACOMB*        CLEAR     85  65  51 E8        30.04S HX  87
JACKSONVILLE*  CLEAR     87  64  46 SE3       30.02S HX  88
PITTSFIELD*    CLEAR     87  65  47 SE5       30.03S HX  88
$$

ILZ028>032-037-038-041>044-048-051>054-059>061-250000-
CENTRAL ILLINOIS

CITY           SKY/WX    TMP DP  RH WIND       PRES   REMARKS
PONTIAC        CLEAR     84  69  59 NE8       30.07F HX  87
BLOOMINGTON    CLEAR     84  64  50 E7        30.07S HX  85
DECATUR        CLEAR     85  64  49 S6        30.05S HX  86
PEORIA         CLEAR     83  70  64 NE6       30.04F HX  87
LACON*         CLEAR     82  67  60 NE5       30.04F HX  84
LINCOLN*       PTCLDY    88  64  45 CALM      30.03S HX  89
SPRINGFIELD    CLEAR     88  61  40 SE5       30.03S HX  88
TAYLORVILLE    CLEAR     85  65  51 SE5       30.04S HX  86
$$

ILZ033-039-045-046-055>057-062-063-250000-
EAST-CENTRAL ILLINOIS

CITY           SKY/WX    TMP DP  RH WIND       PRES   REMARKS
CHAMPAIGN      PTCLDY    83  66  56 E10       30.06S HX  85
RANTOUL*       CLEAR     84  68  58 E10       30.07F HAZE    HX  87
MATTOON        CLEAR     84  64  50 S6        30.05S HX  85
PARIS*         PTCLDY    83  69  62 E3        30.08S HX  87
$$

ILZ079-100>102-250000-
SOUTHWEST ILLINOIS

CITY           SKY/WX    TMP DP  RH WIND       PRES   REMARKS
BELLEVILLE     CLEAR     87  67  51 S5        30.01S HX  89
CAHOKIA*       CLEAR     86  66  51 SE3       30.01S HX  88
SPARTA*        PTCLDY    83  71  67 CALM      30.04F HX  88
$$

ILZ064>066-069>071-074>076-080>082-084>086-088>090-092>094-250000-
SOUTH-CENTRAL ILLINOIS

CITY           SKY/WX    TMP DP  RH WIND       PRES   REMARKS
CARBONDALE     CLEAR     87  72  60 CALM      30.03S HX  93
CAIRO*         PTCLDY    86  68  54 CALM      30.02S HX  90
EFFINGHAM*     CLEAR     85  67  54 CALM      30.06F HX  87
MARION         CLEAR     88  70  55 SE6       30.04F HX  92
MT. VERNON     CLEAR     82  70  65 CALM      30.05S HX  86
CENTRALIA*     CLEAR     86  71  61 CALM      30.04S HX  91
SALEM*         CLEAR     86  68  55 CALM      30.05S HX  90
METROPOLIS*    CLEAR     88  68  51 CALM      30.04S HX  92
$$

ILZ067-068-072-073-078-083-087-091-250000-
SOUTHEAST ILLINOIS

CITY           SKY/WX    TMP DP  RH WIND       PRES   REMARKS
LAWRENCEVILLE  CLEAR     88  64  44 N5        30.06S HX  89
FLORA*         CLEAR     85  70  60 S3        30.05S HX  90
FAIRFIELD*     CLEAR     83  71  67 CALM      30.04S HX  88
HARRISBURG*    PTCLDY    87  69  54 NE3       30.04S HX  91
ROBINSON*      CLEAR     83  70  64 E5        30.07S HX  87
CARMI*         CLEAR     87  67  51 E3        30.04S HX  90
$$

ABBREVIATIONS USED IN REMARKS
   TC - TEMPERATURE IN CELSIUS
  WCI - WIND CHILL INDEX
   HX - HEAT INDEX
  VSB - VISIBILITY
$$





USA.gov is the U.S. government's official web portal to all federal, state and local government web resources and services.